Year,Month,Day,Hour,Minute,Value (Times are PST for temperature in C)
2006,04,24,00,00,9.10
2006,04,24,00,01,9.10
2006,04,24,00,02,9.10
2006,04,24,00,03,9.20
2006,04,24,00,04,9.20
2006,04,24,00,05,9.20
2006,04,24,00,06,9.20
2006,04,24,00,07,9.20
2006,04,24,00,08,9.20
2006,04,24,00,09,9.20
2006,04,24,00,10,9.20
2006,04,24,00,11,9.20
2006,04,24,00,12,9.20
2006,04,24,00,13,9.20
2006,04,24,00,14,9.20
2006,04,24,00,15,9.20
2006,04,24,00,16,9.20
2006,04,24,00,17,9.20
2006,04,24,00,18,9.20
2006,04,24,00,19,9.20
2006,04,24,00,20,9.20
2006,04,24,00,21,9.20
2006,04,24,00,22,9.20
2006,04,24,00,23,9.20
2006,04,24,00,24,9.20
2006,04,24,00,25,9.20
2006,04,24,00,26,9.10
2006,04,24,00,27,9.10
2006,04,24,00,28,9.10
2006,04,24,00,29,9.00
2006,04,24,00,30,9.00
2006,04,24,00,31,9.00
2006,04,24,00,32,9.00
2006,04,24,00,33,9.00
2006,04,24,00,34,9.00
2006,04,24,00,35,9.00
2006,04,24,00,36,9.00
2006,04,24,00,37,9.00
2006,04,24,00,38,9.10
2006,04,24,00,39,9.10
2006,04,24,00,40,9.10
2006,04,24,00,41,9.10
2006,04,24,00,42,9.20
2006,04,24,00,43,9.20
2006,04,24,00,44,9.20
2006,04,24,00,45,9.20
2006,04,24,00,46,9.20
2006,04,24,00,47,9.20
2006,04,24,00,48,9.20
2006,04,24,00,49,9.20
2006,04,24,00,50,9.20
2006,04,24,00,51,9.20
2006,04,24,00,52,9.20
2006,04,24,00,53,9.20
2006,04,24,00,54,9.20
2006,04,24,00,55,9.10
2006,04,24,00,56,9.10
2006,04,24,00,57,9.00
2006,04,24,00,58,9.00
2006,04,24,00,59,9.00
2006,04,24,01,00,8.90
2006,04,24,01,01,8.90
2006,04,24,01,02,8.90
2006,04,24,01,03,8.80
2006,04,24,01,04,8.80
2006,04,24,01,05,8.70
2006,04,24,01,06,8.70
2006,04,24,01,07,8.70
2006,04,24,01,08,8.70
2006,04,24,01,09,8.70
2006,04,24,01,10,8.70
2006,04,24,01,11,8.60
2006,04,24,01,12,8.60
2006,04,24,01,13,8.60
2006,04,24,01,14,8.50
2006,04,24,01,15,8.50
2006,04,24,01,16,8.50
2006,04,24,01,17,8.50
2006,04,24,01,18,8.40
2006,04,24,01,19,8.40
2006,04,24,01,20,8.40
2006,04,24,01,21,8.40
2006,04,24,01,22,8.30
2006,04,24,01,23,8.30
2006,04,24,01,24,8.30
2006,04,24,01,25,8.30
2006,04,24,01,26,8.30
2006,04,24,01,27,8.30
2006,04,24,01,28,8.30
2006,04,24,01,29,8.30
2006,04,24,01,30,8.40
2006,04,24,01,31,8.40
2006,04,24,01,32,8.40
2006,04,24,01,33,8.40
2006,04,24,01,34,8.30
2006,04,24,01,35,8.30
2006,04,24,01,36,8.30
2006,04,24,01,37,8.30
2006,04,24,01,38,8.30
2006,04,24,01,39,8.20
2006,04,24,01,40,8.20
2006,04,24,01,41,8.20
2006,04,24,01,42,8.20
2006,04,24,01,43,8.10
2006,04,24,01,44,8.10
2006,04,24,01,45,8.00
2006,04,24,01,46,8.00
2006,04,24,01,47,7.90
2006,04,24,01,48,7.90
2006,04,24,01,49,7.90
2006,04,24,01,50,7.90
2006,04,24,01,51,7.90
2006,04,24,01,52,7.90
2006,04,24,01,53,7.90
2006,04,24,01,54,7.90
2006,04,24,01,55,7.80
2006,04,24,01,56,7.80
2006,04,24,01,57,7.80
2006,04,24,01,58,7.80
2006,04,24,01,59,7.80
2006,04,24,02,00,7.70
2006,04,24,02,01,7.70
2006,04,24,02,02,7.80
2006,04,24,02,03,7.80
2006,04,24,02,04,7.80
2006,04,24,02,05,7.80
2006,04,24,02,06,7.80
2006,04,24,02,07,7.90
2006,04,24,02,08,7.90
2006,04,24,02,09,7.90
2006,04,24,02,10,7.90
2006,04,24,02,11,7.90
2006,04,24,02,12,7.90
2006,04,24,02,13,8.00
2006,04,24,02,14,8.00
2006,04,24,02,15,8.00
2006,04,24,02,16,8.10
2006,04,24,02,17,8.20
2006,04,24,02,18,8.20
2006,04,24,02,19,8.20
2006,04,24,02,20,8.30
2006,04,24,02,21,8.30
2006,04,24,02,22,8.30
2006,04,24,02,23,8.30
2006,04,24,02,24,8.30
2006,04,24,02,25,8.30
2006,04,24,02,26,8.30
2006,04,24,02,27,8.30
2006,04,24,02,28,8.20
2006,04,24,02,29,8.20
2006,04,24,02,30,8.20
2006,04,24,02,31,8.10
2006,04,24,02,32,8.10
2006,04,24,02,33,8.10
2006,04,24,02,34,8.00
2006,04,24,02,35,7.90
2006,04,24,02,36,7.90
2006,04,24,02,37,7.90
2006,04,24,02,38,7.80
2006,04,24,02,39,7.80
2006,04,24,02,40,7.80
2006,04,24,02,41,7.80
2006,04,24,02,42,7.80
2006,04,24,02,43,7.70
2006,04,24,02,44,7.70
2006,04,24,02,45,7.70
2006,04,24,02,46,7.70
2006,04,24,02,47,7.70
2006,04,24,02,48,7.70
2006,04,24,02,49,7.60
2006,04,24,02,50,7.60
2006,04,24,02,51,7.60
2006,04,24,02,52,7.50
2006,04,24,02,53,7.50
2006,04,24,02,54,7.50
2006,04,24,02,55,7.40
2006,04,24,02,56,7.40
2006,04,24,02,57,7.40
2006,04,24,02,58,7.40
2006,04,24,02,59,7.40
2006,04,24,03,00,7.40
2006,04,24,03,01,7.50
2006,04,24,03,02,7.50
2006,04,24,03,03,7.60
2006,04,24,03,04,7.70
2006,04,24,03,05,7.70
2006,04,24,03,06,7.80
2006,04,24,03,07,7.80
2006,04,24,03,08,7.80
2006,04,24,03,09,7.80
2006,04,24,03,10,7.80
2006,04,24,03,11,7.80
2006,04,24,03,12,7.80
2006,04,24,03,13,7.80
2006,04,24,03,14,7.80
2006,04,24,03,15,7.80
2006,04,24,03,16,7.70
2006,04,24,03,17,7.70
2006,04,24,03,18,7.70
2006,04,24,03,19,7.70
2006,04,24,03,20,7.80
2006,04,24,03,21,7.80
2006,04,24,03,22,7.80
2006,04,24,03,23,7.80
2006,04,24,03,24,7.90
2006,04,24,03,25,7.90
2006,04,24,03,26,8.00
2006,04,24,03,27,8.00
2006,04,24,03,28,8.00
2006,04,24,03,29,8.00
2006,04,24,03,30,8.00
2006,04,24,03,31,8.00
2006,04,24,03,32,8.00
2006,04,24,03,33,8.10
2006,04,24,03,34,8.00
2006,04,24,03,35,8.00
2006,04,24,03,36,8.00
2006,04,24,03,37,8.00
2006,04,24,03,38,7.90
2006,04,24,03,39,7.90
2006,04,24,03,40,7.90
2006,04,24,03,41,7.80
2006,04,24,03,42,7.80
2006,04,24,03,43,7.80
2006,04,24,03,44,7.80
2006,04,24,03,45,7.80
2006,04,24,03,46,7.80
2006,04,24,03,47,7.80
2006,04,24,03,48,7.80
2006,04,24,03,49,7.70
2006,04,24,03,50,7.70
2006,04,24,03,51,7.70
2006,04,24,03,52,7.60
2006,04,24,03,53,7.60
2006,04,24,03,54,7.60
2006,04,24,03,55,7.50
2006,04,24,03,56,7.50
2006,04,24,03,57,7.40
2006,04,24,03,58,7.40
2006,04,24,03,59,7.30
2006,04,24,04,00,7.30
2006,04,24,04,01,7.30
2006,04,24,04,02,7.20
2006,04,24,04,03,7.20
2006,04,24,04,04,7.10
2006,04,24,04,05,7.00
2006,04,24,04,06,6.90
2006,04,24,04,07,6.90
2006,04,24,04,08,6.80
2006,04,24,04,09,6.80
2006,04,24,04,10,6.80
2006,04,24,04,11,6.80
2006,04,24,04,12,6.80
2006,04,24,04,13,6.80
2006,04,24,04,14,6.80
2006,04,24,04,15,6.80
2006,04,24,04,16,6.80
2006,04,24,04,17,6.70
2006,04,24,04,18,6.70
2006,04,24,04,19,6.70
2006,04,24,04,20,6.70
2006,04,24,04,21,6.80
2006,04,24,04,22,6.80
2006,04,24,04,23,6.90
2006,04,24,04,24,6.90
2006,04,24,04,25,7.00
2006,04,24,04,26,7.00
2006,04,24,04,27,7.10
2006,04,24,04,28,7.10
2006,04,24,04,29,7.20
2006,04,24,04,30,7.30
2006,04,24,04,31,7.30
2006,04,24,04,32,7.30
2006,04,24,04,33,7.30
2006,04,24,04,34,7.30
2006,04,24,04,35,7.30
2006,04,24,04,36,7.30
2006,04,24,04,37,7.30
2006,04,24,04,38,7.30
2006,04,24,04,39,7.30
2006,04,24,04,40,7.30
2006,04,24,04,41,7.30
2006,04,24,04,42,7.30
2006,04,24,04,43,7.40
2006,04,24,04,44,7.40
2006,04,24,04,45,7.40
2006,04,24,04,46,7.50
2006,04,24,04,47,7.50
2006,04,24,04,48,7.50
2006,04,24,04,49,7.50
2006,04,24,04,50,7.50
2006,04,24,04,51,7.50
2006,04,24,04,52,7.60
2006,04,24,04,53,7.60
2006,04,24,04,54,7.70
2006,04,24,04,55,7.70
2006,04,24,04,56,7.80
2006,04,24,04,57,7.80
2006,04,24,04,58,7.80
2006,04,24,04,59,7.80
2006,04,24,05,00,7.80
2006,04,24,05,01,7.80
2006,04,24,05,02,7.80
2006,04,24,05,03,7.80
2006,04,24,05,04,7.80
2006,04,24,05,05,7.70
2006,04,24,05,06,7.70
2006,04,24,05,07,7.60
2006,04,24,05,08,7.60
2006,04,24,05,09,7.60
2006,04,24,05,10,7.50
2006,04,24,05,11,7.50
2006,04,24,05,12,7.40
2006,04,24,05,13,7.40
2006,04,24,05,14,7.30
2006,04,24,05,15,7.30
2006,04,24,05,16,7.30
2006,04,24,05,17,7.30
2006,04,24,05,18,7.30
2006,04,24,05,19,7.30
2006,04,24,05,20,7.30
2006,04,24,05,21,7.30
2006,04,24,05,22,7.30
2006,04,24,05,23,7.20
2006,04,24,05,24,7.20
2006,04,24,05,25,7.20
2006,04,24,05,26,7.10
2006,04,24,05,27,7.00
2006,04,24,05,28,7.00
2006,04,24,05,29,7.00
2006,04,24,05,30,6.90
2006,04,24,05,31,6.90
2006,04,24,05,32,6.80
2006,04,24,05,33,6.80
2006,04,24,05,34,6.80
2006,04,24,05,35,6.80
2006,04,24,05,36,6.70
2006,04,24,05,37,6.70
2006,04,24,05,38,6.70
2006,04,24,05,39,6.60
2006,04,24,05,40,6.60
2006,04,24,05,41,6.60
2006,04,24,05,42,6.60
2006,04,24,05,43,6.60
2006,04,24,05,44,6.60
2006,04,24,05,45,6.40
2006,04,24,05,46,6.40
2006,04,24,05,47,6.40
2006,04,24,05,48,6.40
2006,04,24,05,49,6.40
2006,04,24,05,50,6.40
2006,04,24,05,51,6.40
2006,04,24,05,52,6.30
2006,04,24,05,53,6.30
2006,04,24,05,54,6.30
2006,04,24,05,55,6.30
2006,04,24,05,56,6.30
2006,04,24,05,57,6.20
2006,04,24,05,58,6.20
2006,04,24,05,59,6.20
2006,04,24,06,00,6.20
2006,04,24,06,01,6.20
2006,04,24,06,02,6.20
2006,04,24,06,03,6.20
2006,04,24,06,04,6.20
2006,04,24,06,05,6.20
2006,04,24,06,06,6.20
2006,04,24,06,07,6.20
2006,04,24,06,08,6.20
2006,04,24,06,09,6.10
2006,04,24,06,10,6.10
2006,04,24,06,11,6.10
2006,04,24,06,12,6.10
2006,04,24,06,13,6.10
2006,04,24,06,14,6.10
2006,04,24,06,15,6.10
2006,04,24,06,16,6.10
2006,04,24,06,17,6.10
2006,04,24,06,18,6.20
2006,04,24,06,19,6.20
2006,04,24,06,20,6.20
2006,04,24,06,21,6.20
2006,04,24,06,22,6.20
2006,04,24,06,23,6.20
2006,04,24,06,24,6.20
2006,04,24,06,25,6.20
2006,04,24,06,26,6.30
2006,04,24,06,27,6.30
2006,04,24,06,28,6.30
2006,04,24,06,29,6.30
2006,04,24,06,30,6.30
2006,04,24,06,31,6.30
2006,04,24,06,32,6.30
2006,04,24,06,33,6.30
2006,04,24,06,34,6.30
2006,04,24,06,35,6.40
2006,04,24,06,36,6.40
2006,04,24,06,37,6.40
2006,04,24,06,38,6.50
2006,04,24,06,39,6.60
2006,04,24,06,40,6.60
2006,04,24,06,41,6.70
2006,04,24,06,42,6.80
2006,04,24,06,43,7.00
2006,04,24,06,44,7.10
2006,04,24,06,45,7.20
2006,04,24,06,46,7.30
2006,04,24,06,47,7.40
2006,04,24,06,48,7.60
2006,04,24,06,49,7.80
2006,04,24,06,50,8.00
2006,04,24,06,51,8.20
2006,04,24,06,52,8.30
2006,04,24,06,53,8.50
2006,04,24,06,54,8.70
2006,04,24,06,55,8.80
2006,04,24,06,56,8.90
2006,04,24,06,57,9.00
2006,04,24,06,58,9.20
2006,04,24,06,59,9.40
2006,04,24,07,00,9.50
2006,04,24,07,01,9.60
2006,04,24,07,02,9.70
2006,04,24,07,03,9.80
2006,04,24,07,04,9.90
2006,04,24,07,05,10.00
2006,04,24,07,06,10.10
2006,04,24,07,07,10.20
2006,04,24,07,08,10.20
2006,04,24,07,09,10.30
2006,04,24,07,10,10.40
2006,04,24,07,11,10.50
2006,04,24,07,12,10.60
2006,04,24,07,13,10.60
2006,04,24,07,14,10.70
2006,04,24,07,15,10.70
2006,04,24,07,16,10.90
2006,04,24,07,17,10.90
2006,04,24,07,18,10.90
2006,04,24,07,19,11.10
2006,04,24,07,20,11.10
2006,04,24,07,21,11.10
2006,04,24,07,22,11.20
2006,04,24,07,23,11.20
2006,04,24,07,24,11.30
2006,04,24,07,25,11.40
2006,04,24,07,26,11.40
2006,04,24,07,27,11.40
2006,04,24,07,28,11.50
2006,04,24,07,29,11.60
2006,04,24,07,30,11.60
2006,04,24,07,31,11.60
2006,04,24,07,32,11.70
2006,04,24,07,33,11.70
2006,04,24,07,34,11.80
2006,04,24,07,35,11.80
2006,04,24,07,36,11.80
2006,04,24,07,37,11.90
2006,04,24,07,38,11.90
2006,04,24,07,39,12.00
2006,04,24,07,40,12.00
2006,04,24,07,41,12.10
2006,04,24,07,42,12.10
2006,04,24,07,43,12.10
2006,04,24,07,44,12.20
2006,04,24,07,45,12.20
2006,04,24,07,46,12.30
2006,04,24,07,47,12.30
2006,04,24,07,48,12.30
2006,04,24,07,49,12.40
2006,04,24,07,50,12.40
2006,04,24,07,51,12.50
2006,04,24,07,52,12.50
2006,04,24,07,53,12.50
2006,04,24,07,54,12.60
2006,04,24,07,55,12.60
2006,04,24,07,56,12.70
2006,04,24,07,57,12.70
2006,04,24,07,58,12.80
2006,04,24,07,59,12.80
2006,04,24,08,00,12.80
2006,04,24,08,01,12.80
2006,04,24,08,02,12.80
2006,04,24,08,03,12.90
2006,04,24,08,04,12.90
2006,04,24,08,05,13.00
2006,04,24,08,06,13.00
2006,04,24,08,07,13.00
2006,04,24,08,08,13.10
2006,04,24,08,09,13.10
2006,04,24,08,10,13.10
2006,04,24,08,11,13.10
2006,04,24,08,12,13.20
2006,04,24,08,13,13.20
2006,04,24,08,14,13.20
2006,04,24,08,15,13.20
2006,04,24,08,16,13.30
2006,04,24,08,17,13.30
2006,04,24,08,18,13.30
2006,04,24,08,19,13.30
2006,04,24,08,20,13.30
2006,04,24,08,21,13.40
2006,04,24,08,22,13.40
2006,04,24,08,23,13.40
2006,04,24,08,24,13.40
2006,04,24,08,25,13.50
2006,04,24,08,26,13.50
2006,04,24,08,27,13.50
2006,04,24,08,28,13.60
2006,04,24,08,29,13.60
2006,04,24,08,30,13.60
2006,04,24,08,31,13.70
2006,04,24,08,32,13.70
2006,04,24,08,33,13.80
2006,04,24,08,34,13.80
2006,04,24,08,35,13.80
2006,04,24,08,36,13.90
2006,04,24,08,37,13.90
2006,04,24,08,38,14.00
2006,04,24,08,39,14.00
2006,04,24,08,40,14.00
2006,04,24,08,41,14.10
2006,04,24,08,42,14.10
2006,04,24,08,43,14.00
2006,04,24,08,44,14.00
2006,04,24,08,45,14.10
2006,04,24,08,46,14.10
2006,04,24,08,47,14.10
2006,04,24,08,48,14.20
2006,04,24,08,49,14.20
2006,04,24,08,50,14.20
2006,04,24,08,51,14.20
2006,04,24,08,52,14.30
2006,04,24,08,53,14.30
2006,04,24,08,54,14.30
2006,04,24,08,55,14.20
2006,04,24,08,56,14.20
2006,04,24,08,57,14.20
2006,04,24,08,58,14.20
2006,04,24,08,59,14.20
2006,04,24,09,00,14.20
2006,04,24,09,01,14.20
2006,04,24,09,02,14.20
2006,04,24,09,03,14.30
2006,04,24,09,04,14.30
2006,04,24,09,05,14.40
2006,04,24,09,06,14.40
2006,04,24,09,07,14.40
2006,04,24,09,08,14.40
2006,04,24,09,09,14.40
2006,04,24,09,10,14.40
2006,04,24,09,11,14.30
2006,04,24,09,12,14.30
2006,04,24,09,13,14.20
2006,04,24,09,14,14.20
2006,04,24,09,15,14.20
2006,04,24,09,16,14.20
2006,04,24,09,17,14.20
2006,04,24,09,18,14.20
2006,04,24,09,19,14.30
2006,04,24,09,20,14.30
2006,04,24,09,21,14.30
2006,04,24,09,22,14.40
2006,04,24,09,23,14.30
2006,04,24,09,24,14.40
2006,04,24,09,25,14.40
2006,04,24,09,26,14.50
2006,04,24,09,27,14.60
2006,04,24,09,28,14.70
2006,04,24,09,29,14.80
2006,04,24,09,30,14.80
2006,04,24,09,31,14.80
2006,04,24,09,32,14.80
2006,04,24,09,33,14.80
2006,04,24,09,34,14.70
2006,04,24,09,35,14.70
2006,04,24,09,36,14.70
2006,04,24,09,37,14.70
2006,04,24,09,38,14.70
2006,04,24,09,39,14.60
2006,04,24,09,40,14.60
2006,04,24,09,41,14.60
2006,04,24,09,42,14.70
2006,04,24,09,43,14.70
2006,04,24,09,44,14.80
2006,04,24,09,45,14.90
2006,04,24,09,46,14.90
2006,04,24,09,47,14.90
2006,04,24,09,48,14.90
2006,04,24,09,49,14.90
2006,04,24,09,50,14.80
2006,04,24,09,51,14.80
2006,04,24,09,52,14.80
2006,04,24,09,53,14.90
2006,04,24,09,54,14.90
2006,04,24,09,55,14.90
2006,04,24,09,56,14.90
2006,04,24,09,57,14.90
2006,04,24,09,58,14.80
2006,04,24,09,59,14.80
2006,04,24,10,00,14.80
2006,04,24,10,01,14.90
2006,04,24,10,02,15.00
2006,04,24,10,03,15.10
2006,04,24,10,04,15.10
2006,04,24,10,05,15.10
2006,04,24,10,06,15.10
2006,04,24,10,07,15.10
2006,04,24,10,08,15.20
2006,04,24,10,09,15.30
2006,04,24,10,10,15.30
2006,04,24,10,11,15.40
2006,04,24,10,12,15.40
2006,04,24,10,13,15.40
2006,04,24,10,14,15.30
2006,04,24,10,15,15.30
2006,04,24,10,16,15.30
2006,04,24,10,17,15.30
2006,04,24,10,18,15.30
2006,04,24,10,19,15.40
2006,04,24,10,20,15.40
2006,04,24,10,21,15.40
2006,04,24,10,22,15.40
2006,04,24,10,23,15.30
2006,04,24,10,24,15.30
2006,04,24,10,25,15.40
2006,04,24,10,26,15.40
2006,04,24,10,27,15.40
2006,04,24,10,28,15.40
2006,04,24,10,29,15.40
2006,04,24,10,30,15.40
2006,04,24,10,31,15.40
2006,04,24,10,32,15.40
2006,04,24,10,33,15.50
2006,04,24,10,34,15.50
2006,04,24,10,35,15.80
2006,04,24,10,36,15.90
2006,04,24,10,37,16.00
2006,04,24,10,38,16.10
2006,04,24,10,39,16.10
2006,04,24,10,40,16.20
2006,04,24,10,41,16.20
2006,04,24,10,42,16.20
2006,04,24,10,43,16.20
2006,04,24,10,44,16.20
2006,04,24,10,45,16.30
2006,04,24,10,46,16.30
2006,04,24,10,47,16.30
2006,04,24,10,48,16.30
2006,04,24,10,49,16.30
2006,04,24,10,50,16.20
2006,04,24,10,51,16.20
2006,04,24,10,52,16.30
2006,04,24,10,53,16.20
2006,04,24,10,54,16.20
2006,04,24,10,55,16.20
2006,04,24,10,56,16.20
2006,04,24,10,57,16.20
2006,04,24,10,58,16.10
2006,04,24,10,59,16.10
2006,04,24,11,00,16.20
2006,04,24,11,01,16.30
2006,04,24,11,02,16.40
2006,04,24,11,03,16.40
2006,04,24,11,04,16.60
2006,04,24,11,05,16.60
2006,04,24,11,06,16.60
2006,04,24,11,07,16.60
2006,04,24,11,08,16.60
2006,04,24,11,09,16.60
2006,04,24,11,10,16.60
2006,04,24,11,11,16.40
2006,04,24,11,12,16.40
2006,04,24,11,13,16.50
2006,04,24,11,14,16.60
2006,04,24,11,15,16.70
2006,04,24,11,16,16.80
2006,04,24,11,17,16.80
2006,04,24,11,18,16.70
2006,04,24,11,19,16.70
2006,04,24,11,20,16.70
2006,04,24,11,21,16.70
2006,04,24,11,22,16.70
2006,04,24,11,23,16.90
2006,04,24,11,24,17.00
2006,04,24,11,25,17.00
2006,04,24,11,26,17.00
2006,04,24,11,27,17.10
2006,04,24,11,28,17.20
2006,04,24,11,29,17.30
2006,04,24,11,30,17.30
2006,04,24,11,31,17.50
2006,04,24,11,32,17.50
2006,04,24,11,33,17.50
2006,04,24,11,34,17.40
2006,04,24,11,35,17.30
2006,04,24,11,36,17.30
2006,04,24,11,37,17.30
2006,04,24,11,38,17.30
2006,04,24,11,39,17.30
2006,04,24,11,40,17.30
2006,04,24,11,41,17.20
2006,04,24,11,42,17.20
2006,04,24,11,43,17.30
2006,04,24,11,44,17.30
2006,04,24,11,45,17.40
2006,04,24,11,46,17.40
2006,04,24,11,47,17.40
2006,04,24,11,48,17.50
2006,04,24,11,49,17.60
2006,04,24,11,50,17.70
2006,04,24,11,51,17.80
2006,04,24,11,52,18.00
2006,04,24,11,53,18.00
2006,04,24,11,54,17.90
2006,04,24,11,55,17.90
2006,04,24,11,56,17.90
2006,04,24,11,57,17.90
2006,04,24,11,58,17.90
2006,04,24,11,59,18.00
2006,04,24,12,00,18.10
2006,04,24,12,01,18.20
2006,04,24,12,02,18.20
2006,04,24,12,03,18.20
2006,04,24,12,04,18.20
2006,04,24,12,05,18.20
2006,04,24,12,06,18.20
2006,04,24,12,07,18.20
2006,04,24,12,08,18.20
2006,04,24,12,09,18.20
2006,04,24,12,10,18.30
2006,04,24,12,11,18.40
2006,04,24,12,12,18.40
2006,04,24,12,13,18.40
2006,04,24,12,14,18.40
2006,04,24,12,15,18.30
2006,04,24,12,16,18.30
2006,04,24,12,17,18.40
2006,04,24,12,18,18.40
2006,04,24,12,19,18.40
2006,04,24,12,20,18.40
2006,04,24,12,21,18.40
2006,04,24,12,22,18.50
2006,04,24,12,23,18.60
2006,04,24,12,24,18.70
2006,04,24,12,25,18.80
2006,04,24,12,26,18.90
2006,04,24,12,27,18.90
2006,04,24,12,28,18.90
2006,04,24,12,29,18.90
2006,04,24,12,30,19.00
2006,04,24,12,31,19.10
2006,04,24,12,32,19.10
2006,04,24,12,33,19.10
2006,04,24,12,34,19.10
2006,04,24,12,35,19.20
2006,04,24,12,36,19.10
2006,04,24,12,37,19.10
2006,04,24,12,38,19.10
2006,04,24,12,39,19.10
2006,04,24,12,40,19.00
2006,04,24,12,41,19.10
2006,04,24,12,42,19.10
2006,04,24,12,43,19.10
2006,04,24,12,44,19.10
2006,04,24,12,45,19.30
2006,04,24,12,46,19.50
2006,04,24,12,47,19.60
2006,04,24,12,48,19.80
2006,04,24,12,49,19.90
2006,04,24,12,50,20.00
2006,04,24,12,51,20.10
2006,04,24,12,52,20.20
2006,04,24,12,53,20.20
2006,04,24,12,54,20.00
2006,04,24,12,55,19.30
2006,04,24,12,56,18.90
2006,04,24,12,57,18.30
2006,04,24,12,58,18.10
2006,04,24,12,59,18.00
2006,04,24,13,00,17.70
2006,04,24,13,01,17.30
2006,04,24,13,02,17.00
2006,04,24,13,03,17.00
2006,04,24,13,04,16.80
2006,04,24,13,05,16.60
2006,04,24,13,06,16.40
2006,04,24,13,07,16.30
2006,04,24,13,08,16.10
2006,04,24,13,09,15.70
2006,04,24,13,10,15.50
2006,04,24,13,11,15.10
2006,04,24,13,12,14.70
2006,04,24,13,13,14.40
2006,04,24,13,14,14.10
2006,04,24,13,15,14.00
2006,04,24,13,16,13.80
2006,04,24,13,17,13.80
2006,04,24,13,18,13.80
2006,04,24,13,19,13.70
2006,04,24,13,20,13.60
2006,04,24,13,21,13.50
2006,04,24,13,22,13.50
2006,04,24,13,23,13.30
2006,04,24,13,24,13.30
2006,04,24,13,25,13.30
2006,04,24,13,26,13.40
2006,04,24,13,27,13.40
2006,04,24,13,28,13.30
2006,04,24,13,29,13.20
2006,04,24,13,30,13.10
2006,04,24,13,31,13.00
2006,04,24,13,32,12.80
2006,04,24,13,33,12.70
2006,04,24,13,34,12.70
2006,04,24,13,35,12.80
2006,04,24,13,36,12.80
2006,04,24,13,37,12.80
2006,04,24,13,38,12.80
2006,04,24,13,39,12.90
2006,04,24,13,40,13.10
2006,04,24,13,41,13.30
2006,04,24,13,42,13.40
2006,04,24,13,43,13.50
2006,04,24,13,44,13.50
2006,04,24,13,45,13.40
2006,04,24,13,46,13.30
2006,04,24,13,47,13.20
2006,04,24,13,48,13.10
2006,04,24,13,49,13.00
2006,04,24,13,50,12.90
2006,04,24,13,51,12.90
2006,04,24,13,52,12.80
2006,04,24,13,53,12.80
2006,04,24,13,54,12.80
2006,04,24,13,55,12.80
2006,04,24,13,56,12.70
2006,04,24,13,57,12.70
2006,04,24,13,58,12.80
2006,04,24,13,59,12.90
2006,04,24,14,00,13.00
2006,04,24,14,01,13.20
2006,04,24,14,02,13.50
2006,04,24,14,03,13.70
2006,04,24,14,04,13.70
2006,04,24,14,05,13.80
2006,04,24,14,06,13.80
2006,04,24,14,07,13.90
2006,04,24,14,08,13.90
2006,04,24,14,09,13.90
2006,04,24,14,10,13.90
2006,04,24,14,11,13.90
2006,04,24,14,12,13.80
2006,04,24,14,13,13.70
2006,04,24,14,14,13.70
2006,04,24,14,15,13.70
2006,04,24,14,16,13.70
2006,04,24,14,17,13.70
2006,04,24,14,18,13.70
2006,04,24,14,19,13.70
2006,04,24,14,20,13.70
2006,04,24,14,21,13.70
2006,04,24,14,22,13.60
2006,04,24,14,23,13.40
2006,04,24,14,24,13.10
2006,04,24,14,25,12.90
2006,04,24,14,26,12.80
2006,04,24,14,27,12.90
2006,04,24,14,28,13.00
2006,04,24,14,29,13.10
2006,04,24,14,30,13.20
2006,04,24,14,31,13.20
2006,04,24,14,32,13.30
2006,04,24,14,33,13.50
2006,04,24,14,34,13.50
2006,04,24,14,35,13.40
2006,04,24,14,36,13.20
2006,04,24,14,37,13.10
2006,04,24,14,38,13.00
2006,04,24,14,39,13.00
2006,04,24,14,40,13.00
2006,04,24,14,41,12.90
2006,04,24,14,42,12.80
2006,04,24,14,43,12.90
2006,04,24,14,44,12.90
2006,04,24,14,45,13.00
2006,04,24,14,46,13.00
2006,04,24,14,47,13.00
2006,04,24,14,48,13.00
2006,04,24,14,49,12.90
2006,04,24,14,50,12.90
2006,04,24,14,51,12.90
2006,04,24,14,52,12.80
2006,04,24,14,53,12.80
2006,04,24,14,54,12.80
2006,04,24,14,55,12.80
2006,04,24,14,56,12.90
2006,04,24,14,57,12.90
2006,04,24,14,58,12.90
2006,04,24,14,59,12.90
2006,04,24,15,00,12.90
2006,04,24,15,01,13.10
2006,04,24,15,02,13.20
2006,04,24,15,03,13.30
2006,04,24,15,04,13.30
2006,04,24,15,05,13.30
2006,04,24,15,06,13.40
2006,04,24,15,07,13.50
2006,04,24,15,08,13.50
2006,04,24,15,09,13.50
2006,04,24,15,10,13.40
2006,04,24,15,11,13.40
2006,04,24,15,12,13.50
2006,04,24,15,13,13.50
2006,04,24,15,14,13.40
2006,04,24,15,15,13.30
2006,04,24,15,16,13.30
2006,04,24,15,17,13.30
2006,04,24,15,18,13.30
2006,04,24,15,19,13.40
2006,04,24,15,20,13.40
2006,04,24,15,21,13.50
2006,04,24,15,22,13.60
2006,04,24,15,23,13.70
2006,04,24,15,24,13.70
2006,04,24,15,25,13.70
2006,04,24,15,26,13.70
2006,04,24,15,27,13.70
2006,04,24,15,28,13.80
2006,04,24,15,29,13.80
2006,04,24,15,30,13.70
2006,04,24,15,31,13.80
2006,04,24,15,32,13.90
2006,04,24,15,33,13.80
2006,04,24,15,34,13.80
2006,04,24,15,35,13.90
2006,04,24,15,36,13.90
2006,04,24,15,37,13.90
2006,04,24,15,38,13.90
2006,04,24,15,39,13.90
2006,04,24,15,40,13.90
2006,04,24,15,41,13.90
2006,04,24,15,42,13.90
2006,04,24,15,43,13.90
2006,04,24,15,44,14.00
2006,04,24,15,45,14.00
2006,04,24,15,46,14.10
2006,04,24,15,47,14.10
2006,04,24,15,48,14.00
2006,04,24,15,49,14.00
2006,04,24,15,50,14.00
2006,04,24,15,51,14.10
2006,04,24,15,52,14.20
2006,04,24,15,53,14.40
2006,04,24,15,54,14.60
2006,04,24,15,55,14.70
2006,04,24,15,56,14.70
2006,04,24,15,57,14.70
2006,04,24,15,58,14.60
2006,04,24,15,59,14.60
2006,04,24,16,00,14.50
2006,04,24,16,01,14.40
2006,04,24,16,02,14.40
2006,04,24,16,03,14.30
2006,04,24,16,04,14.30
2006,04,24,16,05,14.30
2006,04,24,16,06,14.30
2006,04,24,16,07,14.40
2006,04,24,16,08,14.50
2006,04,24,16,09,14.70
2006,04,24,16,10,14.90
2006,04,24,16,11,15.00
2006,04,24,16,12,15.00
2006,04,24,16,13,15.00
2006,04,24,16,14,14.90
2006,04,24,16,15,14.90
2006,04,24,16,16,14.90
2006,04,24,16,17,15.00
2006,04,24,16,18,15.00
2006,04,24,16,19,15.00
2006,04,24,16,20,15.10
2006,04,24,16,21,15.10
2006,04,24,16,22,15.10
2006,04,24,16,23,15.10
2006,04,24,16,24,15.00
2006,04,24,16,25,15.00
2006,04,24,16,26,15.00
2006,04,24,16,27,15.00
2006,04,24,16,28,14.90
2006,04,24,16,29,14.90
2006,04,24,16,30,14.80
2006,04,24,16,31,14.70
2006,04,24,16,32,14.60
2006,04,24,16,33,14.50
2006,04,24,16,34,14.60
2006,04,24,16,35,14.60
2006,04,24,16,36,14.70
2006,04,24,16,37,14.70
2006,04,24,16,38,14.60
2006,04,24,16,39,14.60
2006,04,24,16,40,14.40
2006,04,24,16,41,14.20
2006,04,24,16,42,14.20
2006,04,24,16,43,14.30
2006,04,24,16,44,14.30
2006,04,24,16,45,14.40
2006,04,24,16,46,14.40
2006,04,24,16,47,14.30
2006,04,24,16,48,14.30
2006,04,24,16,49,14.30
2006,04,24,16,50,14.20
2006,04,24,16,51,14.20
2006,04,24,16,52,14.20
2006,04,24,16,53,14.20
2006,04,24,16,54,14.30
2006,04,24,16,55,14.30
2006,04,24,16,56,14.30
2006,04,24,16,57,14.30
2006,04,24,16,58,14.40
2006,04,24,16,59,14.40
2006,04,24,17,00,14.50
2006,04,24,17,01,14.70
2006,04,24,17,02,14.80
2006,04,24,17,03,15.00
2006,04,24,17,04,15.10
2006,04,24,17,05,15.30
2006,04,24,17,06,15.50
2006,04,24,17,07,15.60
2006,04,24,17,08,15.80
2006,04,24,17,09,15.80
2006,04,24,17,10,15.70
2006,04,24,17,11,15.70
2006,04,24,17,12,15.70
2006,04,24,17,13,15.60
2006,04,24,17,14,15.60
2006,04,24,17,15,15.60
2006,04,24,17,16,15.50
2006,04,24,17,17,15.60
2006,04,24,17,18,15.60
2006,04,24,17,19,15.60
2006,04,24,17,20,15.80
2006,04,24,17,21,15.90
2006,04,24,17,22,16.10
2006,04,24,17,23,16.30
2006,04,24,17,24,16.50
2006,04,24,17,25,16.60
2006,04,24,17,26,16.60
2006,04,24,17,27,16.60
2006,04,24,17,28,16.60
2006,04,24,17,29,16.70
2006,04,24,17,30,16.70
2006,04,24,17,31,16.80
2006,04,24,17,32,17.00
2006,04,24,17,33,17.10
2006,04,24,17,34,17.20
2006,04,24,17,35,17.20
2006,04,24,17,36,17.20
2006,04,24,17,37,17.20